Tracking 29494 objects as of 8-Sep-2024
HD Live streaming from Space Station
objects crossing your sky now

FENGYUN 1C DEB

Track FENGYUN 1C DEB now!
10-day predictions


NORAD ID: 30306
Int'l Code: 1999-025ZT
Perigee: 733.4 km
Apogee: 906.3 km
Inclination: 98.6 °
Period: 101.1 minutes
Semi major axis: 7190 km
RCS: 0.0194 m2 (small)
Launch date: May 10, 1999
Source: People's Republic of China (PRC)
Launch site: Taiyaun Space Center, China (TSC)

Note: This is SATELLITE DEBRIS
Your satellite tracking list
Your tracking list is empty




NASA's NSSDC Master Catalog

Two Line Element Set (TLE):
1 30306U 99025ZT  24250.54619328  .00008254  00000-0  33670-2 0  9998
2 30306  98.6292 293.3519 0120222 266.3348  92.4077 14.23749124910920
Source of the keplerian elements: AFSPC